Tracking 29018 objects as of 14-Jun-2024
HD Live streaming from Space Station
objects crossing your sky now

STARLINK-31350

Track STARLINK-31350 now!
10-day predictions
STARLINK-31350 is classified as:


NORAD ID: 58933
Int'l Code: 2024-027C
Perigee: 488.1 km
Apogee: 489.7 km
Inclination: 53.2 °
Period: 94.2 minutes
Semi major axis: 6859 km
RCS: Unknown
Launch date: February 10, 2024
Source: United States (US)
Launch site: AIR FORCE WESTERN TEST RANGE (AFWTR)
Your satellite tracking list
Your tracking list is empty




NASA's NSSDC Master Catalog

Two Line Element Set (TLE):
1 58933U 24027C   24165.89142309 -.00000329  00000-0  76912-6 0  9993
2 58933  53.1615  13.3674 0001173  81.6277 278.4856 15.28023296 20299
Source of the keplerian elements: AFSPC